Regional Weather Roundup
Issued by NWS

Home | Current Version | Previous Version | Graphics & Text | Print | Product List | Glossary On
Versions: 1 2 3 4 5 6 7 8 9 10 11 12 13 14 15 16 17 18 19 20 21 22 23 24 25 26 27 28 29 30 31 32 33 34 35 36 37 38 39 40 41 42 43 44 45 46 47 48 49 50
000
ASUS44 KMEG 221000
RWRTN
TENNESSEE HOURLY STATE WEATHER ROUNDUP
NATIONAL WEATHER SERVICE MEMPHIS TN
400 AM CST WED FEB 22 2017

TNZ002-004-019-021-049-052-054-088>092-221100-
WEST TENNESSEE

CITY           SKY/WX    TMP DP  RH WIND       PRES   REMARKS
MEMPHIS INTL   CLOUDY    59  58  96 NW3       29.86S
NWS MEMPHIS      N/A     59 N/A N/A MISG        N/A
JACKSON        MOCLDY    56  56 100 S7        29.86S
UNION CITY     CLOUDY   N/A N/A N/A CALM      29.89R VSB 1/4
PARIS          MOCLDY    54  54 100 CALM      29.90R
$$

TNZ008-025-027-028-033-062-065-066-221100-
NORTH MIDDLE TENNESSEE

CITY           SKY/WX    TMP DP  RH WIND       PRES   REMARKS
NASHVILLE      CLOUDY    56  54  93 CALM      29.90S FOG
CLARKSVILLE    CLOUDY    57  54  89 N6        29.91R
SMYRNA         CLOUDY    55  54  96 E3        29.91S FOG
CROSSVILLE     CLOUDY    54  52  93 E3        29.93S
$$

TNZ061-075-076-078-094-096-097-221100-
SOUTH MIDDLE TENNESSEE

CITY           SKY/WX    TMP DP  RH WIND       PRES   REMARKS
TULLAHOMA      MOCLDY    57  55  94 CALM      29.90S
WINCHESTER     CLOUDY    57  55  94 SE6       29.89S
MCMINNVILLE    CLOUDY    57  57 100 NE3       29.90S
COLUMBIA       PTCLDY   N/A N/A N/A CALM      29.86F
SHELBYVILLE    CLOUDY    57  55  94 CALM      29.90S
$$

TNZ017-018-042-046-047-221100-
NORTHEAST TENNESSEE

CITY           SKY/WX    TMP DP  RH WIND       PRES   REMARKS
TRI CITIES     CLOUDY    54  44  69 CALM      29.97R
$$

TNZ012-013-036-069-073-074-221100-
CENTRAL EAST TENNESSEE

CITY           SKY/WX    TMP DP  RH WIND       PRES   REMARKS
KNOXVILLE      LGT RAIN  55  52  89 E5        29.92S
OAK RIDGE      LGT RAIN  55  53  93 CALM      29.94S
GATLINBURG     CLOUDY    54  48  82 CALM      29.92S
$$

TNZ083-085-099-221100-
SOUTHEAST TENNESSEE

CITY           SKY/WX    TMP DP  RH WIND       PRES   REMARKS
CHATTANOOGA    CLOUDY    57  54  89 NE5       29.91S FOG
$$

SKY/WX REPORTED AS FAIR MEANS FEW OR NO CLOUDS BELOW
12 THOUSAND FEET.





USA.gov is the U.S. government's official web portal to all federal, state and local government web resources and services.